Frederick, MD

5:22 PM EST on February 07, 2016 (GMT -0500)
Frederick Municipal

Weather History for KFDK - January, 2014

Change the Weather History Date:

Friday, January 3, 2014

  Actual Average (KHGR) Record (KHGR)
Temperature  
Mean Temperature 16 °F 31 °F  
Max Temperature 26 °F 38 °F 66 °F (2004)
Min Temperature 5 °F 23 °F 9 °F (2014)
Degree Days  
Heating Degree Days 50 34  
Month to date heating degree days 102  
Since 1 July heating degree days 2066  
Cooling Degree Days 0 0  
Month to date cooling degree days 0  
Year to date cooling degree days 0  
Moisture  
Dew Point 10 °F    
Average Humidity 75    
Maximum Humidity 100    
Minimum Humidity 42    
Precipitation  
Precipitation 0.01 in 0.09 in 0.90 in (1999)
Month to date precipitation 0.27  
Year to date precipitation 0.27  
Sea Level Pressure  
Sea Level Pressure 30.17 in    
Wind  
Wind Speed 3 mph (WNW)    
Max Wind Speed 34 mph    
Max Gust Speed 40 mph    
Visibility 9 miles    
Events Snow    
T = Trace of Precipitation, MM = Missing Value Source: NWS Daily Summary

Daily Weather History Graph

Daily Weather History Graph

Search for Another Location

Airport or City:

Trip Planner

Search our weather history database for the weather conditions in past years. The results will help you decide how hot, cold, wet, or windy it might be!

Date:

Astronomy

Jan. 03, 2014 Rise Set
Actual Time 7:29 AM EST 4:58 PM EST
Civil Twilight 6:59 AM EST 5:28 PM EST
Nautical Twilight 6:26 AM EST 6:02 PM EST
Astronomical Twilight 5:53 AM EST 6:34 PM EST
Moon 8:55 AM EST (1/3) 8:04 PM EST (1/3)
Length of Visible Light 10h 28m
Length of Day
9h 28m
Waxing Crescent, 8% of the Moon is Illuminated
Jan 3
Waxing Crescent
Jan 7
First Quarter
Jan 15
Full
Jan 24
Last Quarter
Jan 30
New

Hourly Weather History & Observations

Time (EST) Temp. Windchill Dew Point Humidity Pressure Visibility Wind Dir Wind Speed Gust Speed Precip Events Conditions
12:05 AM 26.6 °F - 24.8 °F 93% 29.71 in 10.0 mi Calm Calm - N/A Snow Light Snow
12:25 AM 26.6 °F - 24.8 °F 93% 29.71 in 10.0 mi Calm Calm - N/A   Overcast
12:45 AM 26.6 °F - 24.8 °F 93% 29.72 in 10.0 mi Calm Calm - N/A   Overcast
1:05 AM 26.6 °F - 24.8 °F 93% 29.73 in 7.0 mi Calm Calm - N/A Snow Light Snow
1:25 AM 26.6 °F - 24.8 °F 93% 29.73 in 4.0 mi Calm Calm - N/A Snow Light Snow
1:45 AM 26.6 °F - 26.6 °F 100% 29.76 in 4.0 mi Calm Calm - N/A Snow Light Snow
2:05 AM 26.6 °F - 26.6 °F 100% 29.78 in 7.0 mi Calm Calm - 0.01 in Snow Light Snow
2:25 AM 24.8 °F - 21.2 °F 86% 29.80 in 5.0 mi Calm Calm - 0.01 in Snow Light Snow
2:45 AM 23.0 °F - 19.4 °F 86% 29.83 in 7.0 mi Calm Calm - N/A Snow Light Snow
3:05 AM 21.2 °F - 19.4 °F 93% 29.84 in 4.0 mi Calm Calm - N/A Snow Light Snow
3:25 AM 21.2 °F - 17.6 °F 86% 29.86 in 5.0 mi Calm Calm - N/A Snow Light Snow
3:45 AM 21.2 °F - 14.0 °F 74% 29.88 in 7.0 mi Calm Calm - N/A Snow Light Snow
4:05 AM 19.4 °F - 14.0 °F 80% 29.89 in 10.0 mi Calm Calm - N/A   Overcast
4:25 AM 21.2 °F - 14.0 °F 74% 29.92 in 10.0 mi Calm Calm - N/A   Overcast
4:45 AM 19.4 °F - 12.2 °F 74% 29.94 in 10.0 mi Calm Calm - N/A   Overcast
5:05 AM 17.6 °F - 12.2 °F 79% 29.97 in 7.0 mi Calm Calm - N/A   Overcast
5:25 AM 17.6 °F - 10.4 °F 73% 30.00 in 7.0 mi Calm Calm - N/A   Overcast
5:40 AM 17.6 °F - 10.4 °F 73% 30.02 in 10.0 mi Calm Calm - N/A   Overcast
6:55 AM 15.8 °F -2.3 °F 6.8 °F 68% 30.11 in 10.0 mi NE 23.0 mph - N/A   Clear
7:45 AM 12.2 °F -10.5 °F 6.8 °F 79% 30.15 in 10.0 mi SW 34.5 mph - N/A   Clear
8:45 AM 15.8 °F -4.1 °F 5.0 °F 62% 30.22 in 10.0 mi WNW 28.8 mph 40.3 mph N/A   Clear
9:55 AM 17.6 °F - 3.2 °F 53% 30.29 in 10.0 mi North - - N/A   Clear
10:50 AM 19.4 °F - 3.2 °F 49% 30.30 in 10.0 mi North - - N/A   Clear
11:45 AM 19.4 °F - 3.2 °F 49% 30.30 in 10.0 mi North - - N/A   Clear
1:50 PM 21.2 °F 6.8 °F 1.4 °F 42% 30.32 in 10.0 mi WNW 17.3 mph - N/A   Clear
2:45 PM 21.2 °F 6.8 °F 1.4 °F 42% 30.35 in 10.0 mi WNW 17.3 mph 23.0 mph N/A   Clear
3:50 PM 21.2 °F 4.9 °F 1.4 °F 42% 30.39 in 10.0 mi WNW 23.0 mph - N/A   Clear
4:45 PM 19.4 °F 7.2 °F 1.4 °F 46% 30.41 in 10.0 mi WNW 11.5 mph - N/A   Clear
5:45 PM 15.8 °F 2.7 °F 1.4 °F 53% 30.45 in 10.0 mi WNW 11.5 mph - N/A   Clear
6:45 PM 15.8 °F 7.2 °F 1.4 °F 53% 30.47 in 10.0 mi WNW 5.8 mph - N/A   Clear
7:50 PM 12.2 °F - 3.2 °F 67% 30.50 in 10.0 mi Calm Calm - N/A   Clear
8:10 PM 15.8 °F - 3.2 °F 58% 30.50 in 10.0 mi Calm Calm - N/A   Clear
8:30 PM 12.2 °F - 3.2 °F 67% 30.50 in 10.0 mi Calm Calm - N/A   Clear
8:50 PM 12.2 °F - 5.0 °F 73% 30.50 in 10.0 mi Calm Calm - N/A   Clear
9:10 PM 12.2 °F - 3.2 °F 67% 30.50 in 10.0 mi Calm Calm - N/A   Clear
9:30 PM 12.2 °F - 3.2 °F 67% 30.50 in 10.0 mi Calm Calm - N/A   Clear
9:50 PM 10.4 °F - 5.0 °F 79% 30.50 in 10.0 mi Calm Calm - N/A   Clear
10:10 PM 10.4 °F - 8.6 °F 92% 30.51 in 10.0 mi Calm Calm - N/A   Clear
10:30 PM 10.4 °F - 8.6 °F 92% 30.52 in 10.0 mi Calm Calm - N/A   Clear
10:50 PM 8.6 °F - 6.8 °F 92% 30.52 in 10.0 mi Calm Calm - N/A   Clear
11:10 PM 5.0 °F - 5.0 °F 100% 30.51 in 10.0 mi Calm Calm - N/A   Clear
11:30 PM 8.6 °F - 6.8 °F 92% 30.51 in 10.0 mi Calm Calm - N/A   Clear
11:50 PM 5.0 °F - 5.0 °F 100% 30.50 in 10.0 mi Calm Calm - N/A   Clear